Temperature
15 15 15 15 15 15 15 15 15 15 16 15 15 15 15 15 15 15 16 16 16 16 16 16 16 16 16 16 15 16 15 15 15 15 15 15 15 15 15 15 15 15 15
15 15 15 15 15 15 15 15 15 15 15 15 15 15 15 15 15 15 15 15 15 15 16 16 16 16 15 15 15 15 15 15 15 15 15 15 15 15 15 15 15 15 15
15 15 15 15 15 15 15 15 15 15 15 15 15 15 15 15 15 15 15 15 15 15 15 15 15 15 15 15 15 15 15 15 15 15 15 15 15 14 14 14 14 14 14
15 15 15 15 15 15 14 15 15 15 15 15 15 15 15 15 15 15 15 15 15 15 15 15 15 15 15 15 15 15 15 14 14 14 14 14 14 14 14 14 14 14 14
15 15 15 14 14 14 14 14 14 14 14 15 15 15 15 15 15 15 15 15 15 15 15 15 15 15 15 15 15 15 14 14 14 14 14 14 14 14 14 14 14 14 14
14 14 14 14 14 14 14 14 14 14 14 14 14 15 15 15 15 15 15 15 15 15 15 15 15 15 15 15 14 14 14 14 14 14 14 14 14 14 14 13 13 13 13
14 14 14 14 14 14 14 14 14 14 14 14 14 14 15 15 15 15 15 15 15 15 15 14 14 14 14 14 14 14 14 14 14 14 14 14 14 13 13 13 13 13 13
14 14 14 14 14 14 14 14 14 14 14 14 14 14 14 14 14 14 14 14 14 14 14 14 14 14 14 14 14 14 14 14 14 14 14 13 13 13 13 13 13 13 13
14 14 14 13 14 14 14 14 14 13 14 14 14 14 14 14 14 14 14 14 14 14 14 14 14 14 14 14 14 14 14 14 14 14 13 13 13 13 13 13 13 12 12
13 13 13 13 13 13 13 13 13 13 13 13 13 14 14 14 14 14 14 14 13 13 14 14 14 14 14 14 13 13 13 13 13 13 13 13 13 12 12 12 12 12 12
13 13 13 13 13 13 13 13 13 13 13 13 13 13 13 13 13 13 13 13 13 13 13 13 13 14 14 13 13 13 13 13 13 13 13 12 12 12 12 12 12 11 11
12 12 12 12 12 12 13 13 13 13 13 13 13 13 13 13 13 13 13 13 13 13 13 13 13 13 13 13 13 13 13 13 12 12 12 12 12 12 12 11 11 11 11
12 12 12 12 12 12 12 12 12 12 12 12 12 12 13 13 13 13 13 13 13 13 13 13 13 13 13 13 13 13 12 12 12 12 12 12 12 11 11 11 11 11 11
12 12 12 12 12 12 12 12 12 12 12 12 12 12 12 12 12 12 12 12 12 12 13 13 13 12 12 12 12 12 12 12 12 12 12 11 11 11 11 11 11 10 10
11 11 11 11 11 11 11 11 11 12 12 12 12 12 12 12 12 12 12 12 12 12 12 12 12 12 12 12 12 12 12 12 11 11 11 11 11 11 11 10 10 10 10
11 11 11 11 11 11 11 11 11 11 11 11 11 12 12 12 12 12 12 12 12 12 12 12 12 12 12 12 11 11 11 11 11 11 11 11 11 11 10 10 10 10 10
11 11 11 11 11 11 11 11 11 11 11 11 11 11 11 11 11 11 11 11 11 11 11 11 11 11 11 11 11 11 11 11 11 11 10 10 10 10 10 10 10 10 9
11 11 11 11 10 10 10 10 10 10 10 10 10 11 11 11 11 11 11 11 11 11 11 11 11 11 11 11 11 11 10 10 10 10 10 10 10 10 10 10 10 9 9
10 10 10 10 10 10 10 10 10 10 10 10 10 10 10 10 10 10 11 11 11 11 11 11 10 10 10 10 10 10 10 10 10 10 10 9 9 9 9 9 9 9 9
10 10 10 10 10 10 10 10 9 9 10 10 10 10 10 10 10 10 10 10 10 10 10 10 10 10 10 10 10 9 9 9 9 9 9 9 9 9 9 9 9 9 9
9 9 10 9 9 9 9 9 9 9 9 9 9 9 9 9 9 9 10 10 10 10 10 10 10 10 9 9 9 9 9 9 9 9 9 9 9 8 8 8 8 8 8
9 9 9 9 9 9 9 9 9 9 9 9 9 9 9 9 9 9 9 9 9 9 9 9 9 9 9 9 9 8 8 8 8 8 8 8 8 8 8 8 8 8 8
9 9 8 8 8 8 8 8 8 8 8 8 8 8 8 8 8 8 9 9 9 9 9 9 9 9 9 8 8 8 8 7 8 8 8 8 8 8 8 8 8 7 7
8 8 8 8 8 8 8 7 8 8 8 8 8 8 8 8 8 8 8 8 8 8 8 8 8 8 8 8 8 8 8 8 7 7 7 7 7 7 7 7 7 7 7
8 8 8 7 7 7 7 7 7 7 7 7 7 7 7 7 7 8 8 8 8 8 8 8 8 8 7 8 8 7 7 7 7 7 7 7 7 7 7 7 7 7 6
7 7 7 7 7 7 7 6 6 6 7 7 7 7 7 7 7 7 7 7 7 7 8 7 7 7 7 7 7 7 7 7 7 7 6 6 6 7 6 6 6 6 6
Wind_Speed
2 2 4 6 7 8 8 9 9 10 10 11 11 11 11 11 11 11 11 11 11 11 11 12 13 13 13 14 14 14 15 14 15 15 15 15 15 16 16 16 15 14 16
3 4 6 7 8 8 8 9 9 9 10 10 10 10 10 10 10 10 10 11 11 11 11 12 12 13 13 13 14 14 15 15 15 14 14 14 14 15 15 15 14 13 15
4 5 6 8 8 8 8 8 9 9 9 10 10 10 10 10 10 9 9 10 11 11 11 11 12 12 12 13 14 14 14 14 14 14 13 11 12 14 15 15 15 15 15
5 5 6 8 8 8 8 8 9 8 8 9 9 9 9 9 9 9 9 9 10 11 11 11 11 11 12 13 13 14 14 14 14 13 11 10 10 13 14 14 14 14 14
5 6 7 9 8 8 8 8 8 8 8 8 8 8 8 8 8 8 8 9 9 10 10 11 11 11 11 12 12 13 13 13 13 12 11 10 9 12 13 13 13 13 13
4 5 7 9 8 7 7 7 7 7 7 7 7 7 7 7 7 7 8 8 9 9 10 10 10 10 11 11 12 12 12 12 12 11 10 9 9 11 12 12 12 12 12
5 5 6 7 7 6 6 6 6 6 6 7 7 6 6 6 6 7 7 8 8 9 9 10 10 10 10 10 10 11 11 12 12 10 9 8 9 9 10 11 11 11 11
5 5 5 7 6 6 6 5 5 5 5 6 6 6 6 6 6 6 6 7 7 8 9 9 9 9 9 9 10 10 11 10 10 9 8 8 9 9 10 10 10 10 10
5 5 4 5 5 5 5 4 4 5 5 5 5 5 5 5 5 6 6 6 7 8 8 9 9 8 8 9 9 9 10 10 9 8 7 7 8 9 9 9 9 9 9
5 4 4 5 5 5 5 4 4 4 5 5 5 5 5 5 4 5 5 5 6 7 7 8 8 8 8 8 9 9 9 9 8 7 6 6 7 8 8 9 9 8 8
3 3 3 4 4 5 4 4 4 4 4 5 5 5 5 4 4 4 4 5 5 6 7 8 8 8 8 8 8 8 8 7 7 6 5 6 6 7 7 8 8 7 7
3 2 2 3 3 4 4 4 4 4 4 4 4 4 4 4 3 4 4 5 5 6 6 7 8 7 7 7 7 7 6 7 6 4 4 5 5 5 6 6 6 6 6
4 2 2 2 3 3 3 3 3 3 3 4 4 4 3 3 3 3 4 4 4 4 5 5 6 6 6 6 5 5 6 6 4 4 3 4 4 5 5 5 5 5 5
3 3 1 1 2 2 3 3 3 2 2 2 2 3 3 3 2 2 3 3 3 4 4 5 5 5 6 6 5 5 5 4 4 3 3 4 4 4 4 4 4 4 4
3 2 2 2 2 2 2 2 2 2 1 1 1 2 3 2 1 2 2 2 3 3 4 4 4 4 4 4 4 4 4 4 4 3 3 4 4 3 3 3 3 3 3
4 3 2 2 2 2 1 1 1 1 1 1 1 1 2 2 2 2 2 2 2 3 4 4 4 4 3 4 3 3 4 4 4 4 4 3 3 3 3 2 2 2 2
5 4 3 2 2 2 1 1 1 1 1 1 0 1 2 3 3 2 1 1 2 3 4 4 3 4 3 3 2 3 3 3 4 4 4 4 3 2 2 1 1 1 1
4 4 3 2 2 2 1 1 1 1 1 1 1 1 1 2 3 3 2 1 2 3 3 3 2 2 2 2 2 2 2 3 3 4 4 4 3 2 2 1 0 0 0
4 4 3 2 2 1 1 1 1 1 1 0 1 1 1 2 3 3 2 2 3 3 2 2 2 2 3 2 2 2 1 2 2 3 3 3 3 3 3 2 1 1 2
3 4 3 3 2 1 1 1 1 1 1 1 0 0 1 1 2 3 2 2 3 3 2 2 3 2 2 3 3 2 1 1 2 2 2 2 2 2 2 2 2 1 2
3 3 4 3 2 2 1 1 1 1 1 1 1 1 0 1 1 1 1 2 3 3 3 3 3 3 2 1 2 2 1 1 1 1 1 2 2 1 2 2 2 1 2
4 4 4 4 3 3 2 2 1 1 1 1 0 1 1 1 0 1 1 2 2 3 3 3 3 3 2 1 2 3 1 0 1 1 0 1 0 1 1 0 1 1 1
5 5 4 4 3 3 2 2 1 1 1 0 1 1 1 1 0 1 1 2 2 3 3 3 4 5 4 2 1 3 3 3 1 1 1 1 1 0 0 0 1 1 1
5 4 4 3 3 3 3 3 3 2 1 2 1 1 1 1 1 0 1 2 2 2 2 3 3 3 5 4 2 0 1 3 3 1 1 2 1 1 1 1 1 2 2
4 3 3 3 3 3 3 4 4 2 1 1 0 0 1 1 1 0 1 2 2 2 2 2 2 3 3 4 3 2 1 1 2 2 2 2 1 2 2 2 2 2 3
2 2 3 3 3 2 3 3 3 3 2 1 0 1 1 1 0 0 1 1 1 2 2 2 2 3 3 3 3 3 3 3 3 3 3 3 2 2 2 2 2 2 2
Wind_Direction
198 206 157 136 126 117 112 108 105 103 100 99 100 100 98 97 95 93 94 94 91 91 91 89 87 87 88 86 85 84 83 82 80 80 83 84 84 86 84 82 80 78 82
163 166 153 138 128 120 113 109 106 104 102 100 99 100 100 98 95 94 96 95 93 92 93 91 89 88 88 87 86 86 84 82 81 79 79 79 82 86 85 83 82 83 82
129 139 147 139 130 124 119 113 107 106 104 104 101 102 102 99 97 95 99 100 97 93 93 93 92 90 89 90 89 88 86 83 83 80 76 73 81 86 86 84 83 81 82
124 126 132 134 132 127 123 120 114 111 107 107 105 104 103 101 98 96 97 102 101 97 94 95 95 93 92 93 92 91 88 85 83 80 72 71 80 88 86 83 82 82 81
107 116 127 131 130 129 129 125 121 117 114 111 108 105 104 105 102 99 100 102 103 102 99 97 96 97 96 96 96 94 90 86 81 76 70 69 78 88 87 84 83 83 82
95 104 124 132 132 128 127 128 126 123 119 116 113 110 108 109 108 104 104 105 107 105 104 104 101 100 100 99 99 98 93 88 81 74 68 68 77 87 88 87 86 84 84
107 94 115 128 130 128 125 121 123 126 126 123 120 117 114 114 112 110 109 109 113 112 110 109 105 102 103 102 102 101 97 91 83 76 70 71 82 89 92 91 89 85 83
109 98 107 119 124 129 127 125 123 121 124 122 123 118 115 115 113 117 114 113 116 118 117 114 110 105 105 105 103 102 99 94 86 79 73 75 86 91 92 92 88 87 86
96 92 90 103 107 115 122 126 125 115 112 113 117 116 113 113 114 119 120 119 121 124 123 120 115 110 107 107 105 103 101 95 86 80 78 79 88 93 94 93 89 86 86
92 84 79 79 82 85 94 102 106 107 105 101 104 107 106 112 118 122 128 127 129 130 128 125 121 114 111 106 104 102 103 96 87 81 79 85 92 96 96 96 94 92 89
99 80 76 73 75 80 87 93 88 92 94 92 91 97 100 94 104 115 130 132 133 136 137 132 127 119 114 106 103 102 99 94 91 81 81 92 99 101 99 97 96 94 91
149 121 83 81 77 77 83 83 82 80 82 83 85 91 97 101 107 119 133 138 136 136 139 136 131 124 110 101 100 102 99 98 94 84 86 96 104 105 104 103 99 96 93
162 142 108 89 81 82 79 82 84 84 85 85 88 92 98 103 106 111 121 127 126 126 123 124 115 111 110 107 101 100 103 104 100 94 94 105 111 112 112 110 108 103 98
149 151 136 100 87 75 77 81 83 85 84 83 98 108 104 100 98 106 111 116 119 121 118 117 113 113 113 115 114 110 107 102 106 104 104 110 113 116 114 113 113 107 102
162 164 164 129 121 96 86 79 77 84 96 114 114 123 126 122 125 124 121 115 117 121 126 127 123 121 114 110 114 118 117 108 108 111 106 111 112 118 122 119 124 116 105
178 181 175 152 147 121 129 113 102 106 95 115 121 145 154 148 143 135 133 128 128 130 134 136 139 136 132 122 117 126 129 126 117 116 112 110 110 112 115 110 113 112 107
182 177 171 167 144 145 151 147 109 118 114 106 120 200 181 170 157 146 146 152 152 145 134 126 126 127 132 127 136 134 125 126 120 117 114 108 102 99 98 100 101 116 127
172 170 172 160 143 153 157 157 128 112 121 130 165 207 197 191 174 157 160 178 158 143 137 138 144 151 152 151 154 157 126 117 119 121 115 112 107 97 84 70 73 59 349
177 172 166 153 153 163 155 141 115 108 131 150 182 197 198 201 188 167 168 174 157 139 142 165 160 164 164 161 158 146 134 133 120 121 108 108 109 99 91 73 45 28 36
175 169 162 156 161 153 135 109 100 69 55 35 46 14 185 193 190 177 170 169 155 158 167 163 154 141 159 161 141 112 93 113 99 104 117 105 101 102 95 79 63 28 15
170 167 165 159 164 151 154 165 175 224 271 299 335 360 37 184 178 164 191 173 160 173 178 171 157 139 116 127 124 104 41 60 108 107 93 94 86 95 95 87 68 38 359
186 185 176 175 174 172 177 188 187 201 227 251 313 12 7 13 111 151 166 199 169 166 165 173 162 157 139 137 145 144 153 287 292 241 164 162 170 82 77 90 62 14 346
194 194 187 183 178 171 155 122 88 61 39 22 327 321 346 3 27 131 145 178 169 169 180 187 184 168 171 166 159 162 160 201 220 288 234 208 226 197 327 303 308 292 284
204 192 179 174 170 168 160 157 158 170 209 243 250 263 325 30 36 101 130 135 145 155 171 194 188 183 171 178 170 148 149 147 159 207 272 246 224 220 243 277 281 285 274
187 176 169 162 163 162 164 171 174 180 193 217 275 279 337 7 22 45 114 125 142 142 144 155 162 172 180 180 174 164 158 107 126 160 220 254 270 246 236 244 249 269 273
152 150 150 154 162 160 157 166 172 176 164 150 198 208 249 277 276 280 136 142 152 142 148 171 173 169 174 166 167 169 174 163 175 175 202 220 239 256 248 242 239 248 268
Height
1510 1512 1514 1515 1516 1517 1518 1519 1520 1521 1522 1523 1524 1524 1525 1526 1526 1527 1528 1528 1529 1529 1530 1530 1531 1531 1531 1532 1532 1533 1533 1534 1534 1535 1536 1536 1537 1537 1537 1538 1538 1539 1539
1509 1512 1513 1515 1516 1518 1519 1519 1520 1521 1522 1523 1524 1525 1525 1526 1527 1528 1528 1529 1529 1530 1530 1531 1531 1532 1533 1533 1534 1534 1535 1535 1536 1536 1537 1538 1538 1538 1539 1540 1540 1540 1541
1509 1511 1513 1515 1516 1518 1519 1520 1520 1521 1522 1523 1524 1525 1526 1526 1527 1528 1529 1530 1530 1531 1531 1531 1532 1532 1533 1534 1535 1535 1536 1537 1537 1538 1538 1539 1539 1540 1540 1541 1541 1542 1542
1509 1511 1513 1515 1516 1518 1519 1520 1521 1521 1522 1523 1524 1525 1526 1527 1527 1528 1529 1530 1531 1531 1531 1532 1533 1533 1534 1535 1535 1536 1537 1538 1538 1539 1540 1540 1541 1541 1542 1542 1542 1543 1543
1510 1511 1513 1515 1516 1518 1519 1520 1521 1521 1522 1523 1524 1525 1526 1527 1528 1528 1529 1530 1531 1531 1532 1532 1533 1534 1534 1535 1536 1537 1537 1538 1539 1540 1540 1541 1542 1542 1543 1543 1543 1543 1544
1510 1512 1513 1515 1516 1517 1519 1520 1521 1521 1522 1523 1524 1525 1525 1526 1527 1528 1529 1530 1530 1531 1532 1532 1533 1534 1535 1535 1536 1537 1538 1539 1540 1541 1541 1542 1542 1543 1543 1543 1544 1544 1544
1510 1512 1513 1514 1516 1517 1518 1519 1520 1521 1522 1523 1523 1524 1525 1526 1527 1528 1529 1529 1530 1531 1532 1532 1533 1534 1535 1536 1537 1537 1538 1539 1540 1541 1542 1542 1543 1543 1544 1544 1544 1544 1545
1510 1511 1512 1514 1515 1516 1517 1518 1519 1520 1521 1522 1523 1524 1524 1525 1526 1527 1528 1529 1530 1531 1532 1532 1533 1534 1535 1536 1537 1538 1538 1539 1540 1541 1542 1543 1543 1544 1544 1544 1545 1545 1545
1510 1511 1512 1513 1514 1516 1516 1517 1518 1519 1520 1521 1522 1523 1524 1525 1525 1526 1527 1528 1529 1530 1531 1532 1533 1534 1535 1536 1537 1538 1539 1539 1540 1541 1542 1543 1543 1544 1544 1544 1544 1545 1545
1509 1510 1511 1512 1513 1514 1515 1516 1517 1518 1519 1520 1521 1522 1523 1524 1525 1526 1527 1528 1529 1530 1531 1531 1532 1533 1534 1535 1537 1538 1538 1539 1540 1541 1541 1542 1543 1544 1544 1544 1544 1545 1545
1508 1509 1510 1511 1512 1513 1514 1515 1516 1517 1518 1519 1520 1521 1522 1523 1524 1525 1526 1527 1528 1529 1530 1531 1532 1533 1534 1535 1536 1537 1538 1539 1540 1540 1541 1542 1543 1543 1544 1544 1544 1545 1545
1506 1508 1509 1510 1511 1512 1513 1514 1515 1516 1517 1517 1518 1519 1520 1521 1522 1523 1524 1525 1526 1527 1529 1530 1530 1532 1533 1534 1535 1536 1537 1538 1539 1540 1541 1542 1542 1543 1543 1544 1544 1544 1545
1505 1506 1507 1508 1509 1510 1511 1512 1513 1514 1515 1516 1516 1517 1518 1519 1520 1521 1523 1524 1525 1526 1527 1528 1529 1530 1532 1533 1534 1535 1536 1537 1538 1539 1540 1541 1542 1542 1543 1543 1543 1544 1544
1504 1505 1506 1507 1508 1509 1510 1511 1511 1512 1513 1514 1515 1515 1516 1517 1518 1519 1520 1521 1523 1524 1525 1526 1528 1529 1531 1532 1533 1534 1535 1536 1537 1538 1539 1540 1541 1541 1542 1542 1543 1543 1543
1502 1503 1504 1505 1506 1507 1508 1509 1510 1510 1511 1511 1512 1513 1514 1515 1516 1517 1518 1519 1521 1522 1523 1525 1526 1527 1529 1530 1531 1533 1534 1535 1536 1537 1538 1539 1539 1540 1541 1541 1542 1542 1542
1500 1501 1502 1503 1504 1505 1506 1507 1507 1508 1509 1509 1510 1511 1511 1512 1513 1515 1516 1517 1518 1520 1521 1522 1524 1525 1527 1528 1529 1531 1532 1533 1534 1535 1536 1537 1538 1539 1539 1540 1540 1541 1541
1497 1499 1500 1501 1502 1502 1504 1504 1505 1505 1506 1507 1507 1508 1509 1510 1511 1512 1513 1515 1516 1518 1519 1520 1522 1523 1525 1526 1527 1529 1530 1531 1532 1534 1535 1535 1536 1537 1537 1538 1539 1539 1539
1495 1496 1497 1498 1499 1500 1501 1502 1502 1503 1503 1504 1505 1505 1506 1507 1508 1509 1510 1512 1514 1515 1516 1518 1519 1520 1522 1524 1525 1526 1528 1529 1530 1532 1533 1533 1534 1535 1536 1536 1536 1537 1537
1492 1493 1494 1495 1496 1497 1498 1499 1500 1500 1501 1501 1502 1502 1503 1504 1505 1506 1508 1509 1511 1512 1513 1515 1516 1518 1519 1521 1522 1524 1525 1527 1528 1529 1530 1531 1532 1533 1533 1534 1534 1535 1535
1489 1490 1491 1492 1493 1494 1495 1496 1496 1497 1497 1498 1499 1499 1500 1501 1502 1503 1504 1506 1507 1509 1510 1512 1513 1515 1517 1518 1520 1521 1523 1524 1525 1527 1528 1529 1530 1530 1531 1531 1532 1532 1532
1486 1487 1488 1489 1489 1490 1491 1492 1493 1493 1494 1495 1495 1496 1497 1498 1499 1500 1501 1502 1504 1505 1507 1509 1510 1512 1513 1515 1517 1518 1520 1521 1522 1523 1525 1526 1527 1528 1528 1529 1529 1529 1529
1482 1483 1484 1485 1486 1487 1488 1489 1490 1490 1491 1491 1492 1493 1494 1495 1496 1497 1498 1499 1501 1503 1504 1505 1507 1508 1510 1512 1513 1515 1516 1519 1518 1520 1522 1523 1524 1524 1525 1526 1526 1526 1526
1478 1480 1481 1482 1483 1484 1485 1486 1487 1487 1488 1488 1489 1489 1490 1491 1493 1494 1495 1497 1498 1499 1501 1502 1504 1505 1507 1509 1510 1512 1513 1513 1515 1517 1518 1519 1520 1521 1522 1522 1523 1523 1523
1475 1476 1477 1479 1480 1481 1482 1483 1483 1483 1484 1485 1485 1486 1487 1488 1489 1491 1492 1494 1495 1496 1498 1499 1501 1502 1503 1504 1507 1508 1510 1510 1512 1513 1515 1516 1517 1518 1519 1519 1519 1520 1520
1472 1473 1474 1476 1477 1478 1479 1480 1481 1481 1482 1482 1483 1484 1485 1485 1486 1488 1489 1491 1492 1493 1495 1496 1497 1498 1500 1501 1502 1504 1506 1507 1508 1509 1510 1512 1513 1514 1515 1516 1516 1516 1516
1469 1470 1471 1473 1474 1475 1476 1477 1478 1478 1479 1479 1480 1481 1482 1483 1483 1485 1486 1487 1489 1490 1491 1493 1494 1495 1496 1498 1499 1501 1502 1503 1504 1506 1506 1507 1509 1510 1511 1512 1512 1512 1512